• In Switzerland
  • List of Countries
  • For 7 days
  • Water Temperature
  • Satellite Maps
  • Weather Map
  • Weather Widgets
  • user-avatar
    Login

    Hourly Weather Chichester

    Today, 21 October, Sunday

    Time Temperature Precipitation Wind Pressure Humidity
    00:00 +11°C° 0 mm 0 mps 771 mmHg 88%
    01:00 +11°C° 0 mm 0 mps 770 mmHg 88%
    02:00 +12°C° 0 mm 1 mps 770 mmHg 89%
    03:00 +11°C° 0 mm 1 mps 770 mmHg 89%
    04:00 +11°C° 0 mm 1 mps 769 mmHg 90%
    05:00 +11°C° 0 mm 1 mps 769 mmHg 90%
    06:00 +11°C° 0 mm 1 mps 769 mmHg 90%
    07:00 +12°C° 0 mm 1 mps 769 mmHg 86%
    08:00 +13°C° 0 mm 1 mps 769 mmHg 82%
    09:00 +14°C° 0 mm 1 mps 769 mmHg 78%
    10:00 +16°C° 0 mm 2 mps 769 mmHg 72%
    11:00 +17°C° 0 mm 2 mps 769 mmHg 67%
    12:00 +18°C° 0 mm 2 mps 769 mmHg 61%
    13:00 +19°C° 0 mm 2 mps 769 mmHg 62%
    14:00 +19°C° 0 mm 2 mps 769 mmHg 62%
    15:00 +19°C° 0 mm 3 mps 768 mmHg 63%
    16:00 +18°C° 0 mm 3 mps 769 mmHg 70%
    17:00 +16°C° 0 mm 3 mps 769 mmHg 77%
    18:00 +14°C° 0 mm 3 mps 769 mmHg 84%
    19:00 +14°C° 0 mm 4 mps 769 mmHg 84%
    20:00 +14°C° 0 mm 5 mps 769 mmHg 85%
    21:00 +14°C° 0 mm 6 mps 770 mmHg 86%
    22:00 +14°C° 0.1 mm 6 mps 770 mmHg 83%
    23:00 +12°C° 0.1 mm 7 mps 771 mmHg 80%

    Tomorrow, 22 October, Monday

    Time Temperature Precipitation Wind Pressure Humidity
    00:00 +12°C° 0.1 mm 8 mps 771 mmHg 77%
    01:00 +11°C° 0.2 mm 8 mps 772 mmHg 77%
    02:00 +10°C° 0.2 mm 8 mps 772 mmHg 77%
    03:00 +8°C° 0.2 mm 9 mps 773 mmHg 77%
    04:00 +9°C° 0.1 mm 8 mps 773 mmHg 76%
    05:00 +7°C° 0.1 mm 8 mps 774 mmHg 74%
    06:00 +6°C° 0.1 mm 8 mps 774 mmHg 73%
    07:00 +6°C° 0 mm 8 mps 775 mmHg 70%
    08:00 +7°C° 0 mm 8 mps 775 mmHg 67%
    09:00 +7°C° 0 mm 8 mps 776 mmHg 65%
    10:00 +9°C° 0 mm 8 mps 776 mmHg 61%
    11:00 +10°C° 0 mm 8 mps 777 mmHg 57%
    12:00 +11°C° 0 mm 7 mps 777 mmHg 53%
    13:00 +11°C° 0 mm 7 mps 777 mmHg 54%
    14:00 +11°C° 0 mm 6 mps 777 mmHg 54%
    15:00 +11°C° 0 mm 6 mps 777 mmHg 54%
    16:00 +10°C° 0 mm 5 mps 777 mmHg 59%
    17:00 +8°C° 0 mm 5 mps 777 mmHg 63%
    18:00 +7°C° 0 mm 5 mps 777 mmHg 68%
    19:00 +7°C° 0 mm 4 mps 777 mmHg 68%
    20:00 +6°C° 0 mm 4 mps 778 mmHg 69%
    21:00 +6°C° 0 mm 4 mps 778 mmHg 70%
    22:00 +6°C° 0 mm 4 mps 778 mmHg 71%
    23:00 +5°C° 0 mm 3 mps 778 mmHg 73%

    Day after tomorrow, 23 October, Tuesday

    Time Temperature Precipitation Wind Pressure Humidity
    00:00 +5°C° 0 mm 3 mps 777 mmHg 74%
    01:00 +5°C° 0 mm 3 mps 777 mmHg 77%
    02:00 +5°C° 0 mm 3 mps 777 mmHg 79%
    03:00 +5°C° 0 mm 3 mps 776 mmHg 82%
    04:00 +5°C° 0 mm 3 mps 776 mmHg 84%
    05:00 +5°C° 0 mm 3 mps 776 mmHg 85%
    06:00 +5°C° 0 mm 4 mps 775 mmHg 87%
    07:00 +6°C° 0 mm 4 mps 775 mmHg 84%
    08:00 +7°C° 0 mm 4 mps 775 mmHg 81%
    09:00 +9°C° 0 mm 5 mps 775 mmHg 78%
    10:00 +10°C° 0 mm 5 mps 775 mmHg 73%
    11:00 +13°C° 0 mm 5 mps 774 mmHg 68%
    12:00 +14°C° 0 mm 6 mps 774 mmHg 64%
    13:00 +14°C° 0 mm 6 mps 773 mmHg 63%
    14:00 +15°C° 0 mm 6 mps 773 mmHg 62%
    15:00 +15°C° 0 mm 6 mps 773 mmHg 61%
    16:00 +14°C° 0 mm 6 mps 773 mmHg 66%
    17:00 +13°C° 0 mm 6 mps 772 mmHg 71%
    18:00 +10°C° 0 mm 5 mps 772 mmHg 76%
    19:00 +10°C° 0 mm 5 mps 773 mmHg 76%
    20:00 +10°C° 0 mm 5 mps 773 mmHg 77%
    21:00 +9°C° 0 mm 5 mps 773 mmHg 78%
    22:00 +9°C° 0 mm 5 mps 773 mmHg 80%
    23:00 +9°C° 0 mm 5 mps 773 mmHg 82%

    24 October, Wednesday

    Time Temperature Precipitation Wind Pressure Humidity
    00:00 +10°C° 0 mm 4 mps 772 mmHg 84%
    01:00 +10°C° 0 mm 4 mps 772 mmHg 85%
    02:00 +10°C° 0 mm 4 mps 772 mmHg 87%
    03:00 +10°C° 0 mm 4 mps 772 mmHg 88%
    04:00 +10°C° 0 mm 4 mps 772 mmHg 90%
    05:00 +10°C° 0 mm 4 mps 772 mmHg 92%
    06:00 +10°C° 0 mm 4 mps 772 mmHg 94%
    07:00 +11°C° 0 mm 4 mps 772 mmHg 91%
    08:00 +12°C° 0 mm 4 mps 772 mmHg 89%
    09:00 +13°C° 0 mm 4 mps 772 mmHg 86%
    10:00 +14°C° 0 mm 4 mps 772 mmHg 83%
    11:00 +15°C° 0 mm 4 mps 772 mmHg 80%
    12:00 +17°C° 0 mm 4 mps 772 mmHg 77%
    13:00 +17°C° 0 mm 3 mps 772 mmHg 77%
    14:00 +18°C° 0 mm 3 mps 771 mmHg 76%
    15:00 +18°C° 0 mm 3 mps 771 mmHg 76%
    16:00 +17°C° 0 mm 2 mps 771 mmHg 82%
    17:00 +15°C° 0 mm 2 mps 771 mmHg 87%
    18:00 +14°C° 0 mm 2 mps 771 mmHg 92%
    19:00 +14°C° 0 mm 2 mps 771 mmHg 93%
    20:00 +13°C° 0 mm 2 mps 771 mmHg 94%
    21:00 +13°C° 0 mm 2 mps 771 mmHg 94%
    22:00 +12°C° 0 mm 2 mps 770 mmHg 95%
    23:00 +12°C° 0 mm 2 mps 770 mmHg 95%

    25 October, Thursday

    Time Temperature Precipitation Wind Pressure Humidity
    00:00 +12°C° 0 mm 2 mps 770 mmHg 95%
    01:00 +10°C° 0 mm 2 mps 769 mmHg 95%
    02:00 +10°C° 0 mm 2 mps 769 mmHg 95%
    03:00 +10°C° 0 mm 2 mps 769 mmHg 95%
    04:00 +10°C° 0 mm 2 mps 768 mmHg 95%
    05:00 +9°C° 0 mm 2 mps 768 mmHg 96%
    06:00 +9°C° 0 mm 2 mps 768 mmHg 96%
    07:00 +10°C° 0 mm 2 mps 768 mmHg 93%
    08:00 +12°C° 0 mm 2 mps 768 mmHg 91%
    09:00 +13°C° 0 mm 2 mps 768 mmHg 88%
    10:00 +14°C° 0 mm 2 mps 767 mmHg 81%
    11:00 +15°C° 0 mm 2 mps 767 mmHg 75%
    12:00 +15°C° 0 mm 2 mps 767 mmHg 69%
    13:00 +16°C° 0 mm 2 mps 766 mmHg 66%
    14:00 +16°C° 0 mm 2 mps 766 mmHg 63%
    15:00 +16°C° 0 mm 2 mps 765 mmHg 61%
    16:00 +15°C° 0 mm 2 mps 765 mmHg 66%
    17:00 +13°C° 0 mm 2 mps 765 mmHg 72%
    18:00 +12°C° 0 mm 2 mps 764 mmHg 77%
    19:00 +10°C° 0 mm 2 mps 764 mmHg 80%
    20:00 +9°C° 0 mm 2 mps 764 mmHg 82%
    21:00 +9°C° 0 mm 2 mps 764 mmHg 84%
    22:00 +9°C° 0 mm 2 mps 763 mmHg 83%
    23:00 +9°C° 0 mm 2 mps 763 mmHg 83%

    26 October, Friday

    Time Temperature Precipitation Wind Pressure Humidity
    00:00 +9°C° 0 mm 3 mps 763 mmHg 82%
    01:00 +9°C° 0.1 mm 3 mps 762 mmHg 83%
    02:00 +9°C° 0.1 mm 3 mps 762 mmHg 84%
    03:00 +9°C° 0.1 mm 3 mps 761 mmHg 85%
    04:00 +8°C° 0 mm 3 mps 761 mmHg 88%
    05:00 +7°C° 0 mm 4 mps 760 mmHg 90%
    06:00 +6°C° 0 mm 4 mps 760 mmHg 93%
    07:00 +7°C° 0 mm 5 mps 759 mmHg 89%
    08:00 +8°C° 0 mm 6 mps 759 mmHg 84%
    09:00 +9°C° 0 mm 6 mps 759 mmHg 80%
    10:00 +9°C° 0 mm 6 mps 759 mmHg 74%
    11:00 +10°C° 0 mm 7 mps 759 mmHg 68%
    12:00 +11°C° 0 mm 7 mps 758 mmHg 62%
    13:00 +10°C° 0 mm 7 mps 758 mmHg 59%
    14:00 +10°C° 0 mm 7 mps 758 mmHg 57%
    15:00 +10°C° 0 mm 7 mps 758 mmHg 55%
    16:00 +9°C° 0 mm 7 mps 758 mmHg 59%
    17:00 +8°C° 0 mm 7 mps 758 mmHg 63%
    18:00 +5°C° 0 mm 7 mps 758 mmHg 66%
    19:00 +5°C° 0 mm 7 mps 759 mmHg 67%
    20:00 +5°C° 0 mm 7 mps 759 mmHg 69%
    21:00 +4°C° 0 mm 7 mps 759 mmHg 70%
    22:00 +4°C° 0 mm 7 mps 759 mmHg 71%
    23:00 +3°C° 0 mm 7 mps 759 mmHg 72%
    Show more